WB7UVH Weather Reports


Display with metric or nautical units.
time (UTC)temp
F
wind
direction
speed
MPH
gust
MPH
rain 1hr
in
rain 24hr
in
rain mn
in
humidity
%
barometer
mb
20260503193004 85 77 2.0 15.0 0.00 0.00 0.00 35 1014.4
20260503191504 84 50 1.0 14.0 0.00 0.00 0.00 35 1014.7
20260503184504 82 51 1.0 13.0 0.00 0.00 0.00 43 1015.1
20260503183004 79 28 0.0 5.0 0.00 0.00 0.00 46 1015.4
20260503180005 74 98 0.0 0.0 0.00 0.00 0.00 50 1015.6
20260503174504 71 135 0.0 1.0 0.00 0.00 0.00 58 1015.9
20260503171504 70 142 0.0 0.0 0.00 0.00 0.00 58 1016.2
20260503081504 58 58 0.0 0.0 0.00 0.01 0.00 89 1017.2
20260503071504 59 59 0.0 0.0 0.00 0.01 0.00 88 1017.2
20260503054503 61 20 1.0 7.0 0.00 0.01 0.01 85 1016.6
20260503053004 61 16 0.0 3.0 0.00 0.01 0.01 84 1016.8
20260503051503 62 351 0.0 0.0 0.00 0.01 0.01 85 1017.4
20260503044503 63 351 0.0 0.0 0.00 0.01 0.01 83 1017.2
20260503041504 63 355 0.0 0.0 0.00 0.01 0.01 82 1017.3
20260503040004 64 9 0.0 2.0 0.00 0.01 0.01 80 1017.2
20260503034504 64 5 0.0 2.0 0.00 0.01 0.01 80 1017.1
20260503033004 65 277 0.0 2.0 0.00 0.01 0.01 79 1017.2
20260503031504 65 277 0.0 1.0 0.00 0.01 0.01 77 1017.0
20260503024504 66 286 0.0 1.0 0.00 0.01 0.01 77 1016.6
20260503023003 67 282 0.0 0.0 0.00 0.01 0.01 77 1016.5
20260503020004 67 284 0.0 0.0 0.00 0.01 0.01 76 1015.8
20260503011504 68 264 0.0 0.0 0.00 0.01 0.01 76 1015.7
20260503010004 67 246 0.0 2.0 0.00 0.01 0.01 75 1015.7
20260503003004 67 238 1.0 7.0 0.00 0.01 0.01 72 1015.9
20260503000004 68 252 0.0 3.0 0.00 0.01 0.01 69 1015.8
20260502234504 68 211 2.0 9.0 0.00 0.01 0.01 68 1015.7
20260502231503 68 239 2.0 8.0 0.00 0.01 0.01 68 1016.0
20260502230004 68 249 1.0 7.0 0.00 0.01 0.01 68 1016.3
20260502224503 68 259 2.0 8.0 0.00 0.01 0.01 68 1016.6
20260502223004 67 257 0.0 7.0 0.00 0.01 0.01 68 1017.0
20260502221503 66 239 1.0 7.0 0.00 0.01 0.01 68 1017.1
20260502220003 67 198 0.0 9.0 0.00 0.01 0.01 69 1017.3
20260502214504 65 249 2.0 8.0 0.00 0.01 0.01 70 1017.5
20260502210004 63 252 3.0 10.0 0.00 0.01 0.01 71 1018.6
20260502204503 61 248 7.0 12.0 0.00 0.01 0.01 75 1018.7
20260502203004 62 268 5.0 12.0 0.00 0.01 0.01 72 1018.7
20260502201503 64 271 1.0 7.0 0.00 0.01 0.01 71 1019.1